STARLINK-4606, 53632

Orbit data source: Space-Track

STARLINK-4606, 53632 is a payload satellite owned by SpaceX/Seattle (US) in LEO that was launched on Sun, 28 Aug 2022 UTC via an FALCON 9 launch vehicle from the Air Force Eastern Test Range (AFETR). Payload-class satellites include a variety of spacecraft equipped with specific instruments for various scientific and technological missions. These include communications satellites like Starlink; space stations such as the ISS; scientific satellites like the Hubble; Earth observation satellites from companies like Planet Labs, Umbra, and HawkEye 360; GPS; miniature CubeSats for education and research; and military/defense satellites.

Loading next visibility...
Identifier
53632, 2022-104AW
Orbit
LEO
Country
Flag of USUS
Related business
Manufacturer
SpaceX/Seattle
Mission
Operational Commercial Communications
Bus & Motor
STARLINK, Unknown motor
Mass
300 kg wet, ~290 kg dry
Launch date (UTC)
2022-08-28 (4 years ago)
Launch vehicle
FALCON 9
Launch site
Air Force Eastern Test Range (AFETR)
Object type
Payload
Rocket body
Debris
Shape & HBR
Box + 1 Pan, 10.1 m
Radar Cross Section
13.562 m², Large (>1 m²)

Expand to show TLE details & history
Last TLE update: 3 days ago

TLE from 3 days ago
0 STARLINK-4606
1 53632U 22104AW  26170.15721010  .00000435  00000-0  45449-4 0  9993
2 53632  53.1603 128.4938 0001431  86.7783 273.3372 15.08838482211549
Epoch: 2026-06-19T03:46Z
TLE epoch observation values (Epoch: 2026-06-19T03:46:22.952Z)
Latitude
-0.00004°
Longitude
164.50792°
Altitude
540.582 km
Speed
7.593 km/s
True Right ascension
08h 33m 58s
True Declination
0° 00' 00"
Sunlit
Object was in daylight at epoch
Visualization orbit readout
Latitude
Unknown
Longitude
Unknown
Altitude
Unknown
Speed
Unknown
Apparent Right ascension
Unknown
Apparent Declination
Unknown
Sunlit
N/A
Visualization observer readout
Local Sidereal Time
21:37:37
Azimuth
Unknown
Elevation
Unknown
Doppler factor
Unknown
Orbital elements
Apogee altitude
540.992 km
Perigee altitude
539.012 km
Semi-major axis
6,918.139 km
Eccentricity
0.00014
Inclination
53.1603°
RAAN
128.4938°
Arg. of periapsis
86.7783°
True anomaly
273.32083°
Mean anomaly
273.3372°
Eccentric anomaly
273.32901°
Mean motion
3.77189 °/min
Orbital period
95.44 mins
BSTAR
0.000045449
Loading maneuver chart data...
Computing Atmospheric mass density...
Loading historical data...
Loading historical data...
Loading historical data...
Loading historical data...
Loading historical data...
Loading historical data...
Loading historical data...

Documentation

Showing up to 5 results
|